Location: Axtheid
(49.6213°N, 11.8205°E)
Time: 09:54:21
(UTC+00:00)

STARLINK-1126 - Pass Details

Date: 18 February 2020
Orbit: 549 x 550 km, 53.0° (Epoch: 10 April)

Event Time Altitude Azimuth Distance (km) Brightness Sun altitude
Exits shadow 04:18:05 35° 203° (SSW) 903 4.4 -20.1°
Drops below altitude 10° 04:23:32 10° 71° (ENE) 1,833 7.4 -19.2°
Enters shadow 05:19:32 -71° 250° (WSW) 12,600 10.4 -10.1°
Maximum altitude 05:59:05 61° 347° (NNW) 631 3.8 -3.8°
